ANA118 RJTT-KSEA

Flight info

Callsign ANA118
Flight time 8h 31m
Altitude 37000
Route INUBO Y808 NOLAX Y812 ADNAP R591 ADGOR AGEDI AKISU DCT ASPIN DCT AAMYY DCT SYA DCT AMOND DCT ALDOZ DCT ALUFF DCT SPY DCT CHUUK R341 ODK J123 CJAYY B757 KATCH DCT KALTS DCT YZP J523 YZT Q902 VIXOR MARNR8
Aircraft B789/H-SDE1E2E3FGHIJ2J3J4J5M1RWXY/LB1D1

Departure

Time 2026-05-07 02:26
Airport Tokyo Haneda International Airport (RJTT)

Arrival

Time 2026-05-07 10:57
Airport Seattle–Tacoma International Airport (KSEA)
Time Latitude Longitude Altitude Speed Heading
2026-05-07 02:06 35.54476 139.77108 27 ft 0 kts 240°
2026-05-07 02:08 35.54476 139.77109 28 ft 0 kts 240°
2026-05-07 02:09 35.54477 139.77109 28 ft 0 kts 240°
2026-05-07 02:13 35.54477 139.77110 28 ft 0 kts 240°
2026-05-07 02:16 35.54485 139.77127 28 ft 4 kts 240°
2026-05-07 02:16 35.54496 139.77152 50 ft 2 kts 240°
2026-05-07 02:16 35.54507 139.77178 14 ft 4 kts 259°
2026-05-07 02:16 35.54506 139.77203 16 ft 4 kts 299°
2026-05-07 02:17 35.54492 139.77220 25 ft 4 kts 329°
2026-05-07 02:17 35.54469 139.77237 26 ft 4 kts 329°
2026-05-07 02:17 35.54462 139.77242 26 ft 0 kts 329°
2026-05-07 02:19 35.54477 139.77231 26 ft 5 kts 329°
2026-05-07 02:19 35.54531 139.77220 28 ft 10 kts 17°
2026-05-07 02:19 35.54590 139.77301 28 ft 16 kts 60°
2026-05-07 02:20 35.54655 139.77423 28 ft 16 kts 38°
2026-05-07 02:20 35.54750 139.77408 28 ft 15 kts 330°
2026-05-07 02:20 35.54854 139.77334 28 ft 20 kts 330°
2026-05-07 02:20 35.54990 139.77237 28 ft 25 kts 330°
2026-05-07 02:21 35.55138 139.77133 28 ft 24 kts 330°
2026-05-07 02:21 35.55283 139.77031 28 ft 24 kts 329°
2026-05-07 02:21 35.55427 139.76929 28 ft 24 kts 330°
2026-05-07 02:21 35.55560 139.76962 28 ft 21 kts 35°
2026-05-07 02:22 35.55680 139.77064 29 ft 21 kts 34°
2026-05-07 02:22 35.55800 139.77167 28 ft 22 kts 36°
2026-05-07 02:22 35.55925 139.77287 28 ft 23 kts 49°
2026-05-07 02:22 35.56019 139.77406 28 ft 14 kts 74°
2026-05-07 02:23 35.56045 139.77536 28 ft 17 kts 62°
2026-05-07 02:23 35.56114 139.77680 27 ft 21 kts 59°
2026-05-07 02:23 35.56190 139.77839 28 ft 21 kts 60°
2026-05-07 02:23 35.56266 139.78002 28 ft 23 kts 59°
2026-05-07 02:24 35.56351 139.78179 28 ft 26 kts 60°
2026-05-07 02:24 35.56446 139.78383 28 ft 28 kts 60°
2026-05-07 02:24 35.56542 139.78588 28 ft 27 kts 60°
2026-05-07 02:24 35.56547 139.78691 29 ft 2 kts 150°
2026-05-07 02:25 35.56542 139.78693 29 ft 2 kts 153°
2026-05-07 02:25 35.56518 139.78710 28 ft 9 kts 150°
2026-05-07 02:25 35.56356 139.78824 29 ft 55 kts 150°
2026-05-07 02:25 35.55831 139.79195 29 ft 118 kts 150°
2026-05-07 02:26 35.54952 139.79814 33 ft 172 kts 150°
2026-05-07 02:26 35.53898 139.80596 673 ft 173 kts 144°
2026-05-07 02:26 35.53065 139.81682 1377 ft 186 kts 122°
2026-05-07 02:26 35.52471 139.83143 2107 ft 193 kts 118°
2026-05-07 02:27 35.51839 139.84604 2907 ft 195 kts 121°
2026-05-07 02:27 35.51155 139.86120 3444 ft 215 kts 122°
2026-05-07 02:27 35.50381 139.87826 3822 ft 243 kts 123°
2026-05-07 02:27 35.49507 139.89755 4258 ft 270 kts 122°
2026-05-07 02:28 35.48617 139.91787 5293 ft 273 kts 118°
2026-05-07 02:28 35.48279 139.93296 5852 ft 283 kts 96°
2026-05-07 02:28 35.48507 139.95727 6709 ft 295 kts 68°
2026-05-07 02:28 35.50242 139.98250 7880 ft 299 kts 28°
2026-05-07 02:29 35.52190 139.99077 8747 ft 297 kts
2026-05-07 02:29 35.54254 139.99001 9609 ft 299 kts 351°
2026-05-07 02:29 35.56342 139.98745 10367 ft 309 kts 349°
2026-05-07 02:29 35.57798 139.98552 10544 ft 327 kts 350°
2026-05-07 02:30 35.60998 139.98195 10881 ft 362 kts 351°
2026-05-07 02:30 35.63517 139.97949 11723 ft 365 kts 351°
2026-05-07 02:30 35.65203 139.97773 12254 ft 369 kts 351°
2026-05-07 02:30 35.68625 139.97388 13313 ft 377 kts 350°
2026-05-07 02:31 35.71256 139.97103 14081 ft 383 kts 352°
2026-05-07 02:31 35.73071 139.97178 14533 ft 393 kts
2026-05-07 02:31 35.76537 139.98643 15465 ft 406 kts 24°
2026-05-07 02:31 35.79085 140.00226 16123 ft 412 kts 24°
2026-05-07 02:32 35.80788 140.01279 16587 ft 415 kts 24°
2026-05-07 02:32 35.84282 140.03469 17290 ft 424 kts 28°
2026-05-07 02:32 35.85881 140.04862 17825 ft 428 kts 39°
2026-05-07 02:32 35.87924 140.07566 18433 ft 435 kts 55°
2026-05-07 02:33 35.89692 140.12002 19256 ft 438 kts 76°
2026-05-07 02:33 35.90185 140.15688 19870 ft 436 kts 92°
2026-05-07 02:33 35.90089 140.18205 20285 ft 434 kts 102°
2026-05-07 02:33 35.89030 140.22920 21036 ft 433 kts 112°
2026-05-07 02:34 35.88372 140.25252 21421 ft 434 kts 113°
2026-05-07 02:34 35.87338 140.28763 21984 ft 437 kts 113°
2026-05-07 02:34 35.86313 140.32310 22543 ft 441 kts 112°
2026-05-07 02:34 35.85308 140.35892 23112 ft 444 kts 112°
2026-05-07 02:35 35.84290 140.39497 23639 ft 447 kts 112°
2026-05-07 02:35 35.82908 140.44296 24220 ft 451 kts 112°
2026-05-07 02:35 35.81859 140.47948 24629 ft 454 kts 112°
2026-05-07 02:35 35.81150 140.50431 24925 ft 456 kts 112°
2026-05-07 02:36 35.80107 140.54082 25333 ft 459 kts 112°
2026-05-07 02:36 35.79039 140.57798 25727 ft 462 kts 112°
2026-05-07 02:36 35.77960 140.61541 26081 ft 466 kts 112°
2026-05-07 02:36 35.76872 140.65317 26505 ft 469 kts 112°
2026-05-07 02:37 35.75779 140.69113 26892 ft 472 kts 112°
2026-05-07 02:37 35.74676 140.72932 27291 ft 475 kts 112°
2026-05-07 02:37 35.73565 140.76770 27684 ft 478 kts 112°
2026-05-07 02:37 35.72446 140.80632 28080 ft 480 kts 112°
2026-05-07 02:38 35.71315 140.84507 28470 ft 483 kts 112°
2026-05-07 02:38 35.70166 140.88399 28866 ft 485 kts 112°
2026-05-07 02:38 35.69030 140.92249 29278 ft 486 kts 112°
2026-05-07 02:38 35.67878 140.96170 29649 ft 489 kts 111°
2026-05-07 02:39 35.66718 141.00113 30028 ft 491 kts 111°
2026-05-07 02:39 35.65550 141.04066 30352 ft 493 kts 111°
2026-05-07 02:39 35.64374 141.08037 30673 ft 495 kts 112°
2026-05-07 02:39 35.63197 141.12014 30989 ft 497 kts 112°
2026-05-07 02:40 35.62010 141.16019 31226 ft 500 kts 112°
2026-05-07 02:40 35.60817 141.20038 31563 ft 501 kts 112°
2026-05-07 02:40 35.59636 141.24008 31840 ft 503 kts 112°
2026-05-07 02:40 35.58433 141.28046 32125 ft 504 kts 112°
2026-05-07 02:41 35.57224 141.32102 32413 ft 506 kts 112°
2026-05-07 02:41 35.56011 141.36165 32687 ft 508 kts 112°
2026-05-07 02:41 35.54792 141.40240 32990 ft 509 kts 112°
2026-05-07 02:41 35.53570 141.44322 33245 ft 510 kts 112°
2026-05-07 02:42 35.51083 141.52601 33327 ft 523 kts 113°
2026-05-07 02:42 35.49840 141.56736 33612 ft 524 kts 113°
2026-05-07 02:42 35.48576 141.60938 33833 ft 526 kts 113°
2026-05-07 02:43 35.47307 141.65146 34141 ft 526 kts 114°
2026-05-07 02:43 35.46035 141.69356 34407 ft 526 kts 114°
2026-05-07 02:43 35.44858 141.73603 34630 ft 529 kts 105°
2026-05-07 02:43 35.44264 141.78085 34740 ft 538 kts 95°
2026-05-07 02:44 35.44162 141.87320 35097 ft 542 kts 92°
2026-05-07 02:44 35.44145 141.91884 35335 ft 543 kts 92°
2026-05-07 02:44 35.44109 141.96515 35558 ft 543 kts 93°
2026-05-07 02:45 35.44062 142.01149 35802 ft 544 kts 93°
2026-05-07 02:45 35.44023 142.05787 36028 ft 544 kts 92°
2026-05-07 02:45 35.43989 142.10434 36232 ft 545 kts 92°
2026-05-07 02:45 35.43949 142.15087 36446 ft 546 kts 93°
2026-05-07 02:46 35.43902 142.19738 36663 ft 546 kts 93°
2026-05-07 02:46 35.43855 142.24397 36929 ft 546 kts 93°
2026-05-07 02:46 35.43810 142.28985 37048 ft 548 kts 93°
2026-05-07 02:46 35.43761 142.33675 37030 ft 552 kts 93°
2026-05-07 02:47 35.43656 142.43072 37036 ft 549 kts 93°
2026-05-07 02:47 35.43544 142.52420 37042 ft 548 kts 93°
2026-05-07 02:48 35.43425 142.61772 37037 ft 549 kts 93°
2026-05-07 02:48 35.43300 142.71076 37039 ft 550 kts 93°
2026-05-07 02:49 35.43166 142.80474 37041 ft 551 kts 93°
2026-05-07 02:49 35.43025 142.89883 37056 ft 553 kts 93°
2026-05-07 02:50 35.42876 142.99311 37045 ft 553 kts 93°
2026-05-07 02:50 35.42721 143.08665 37050 ft 553 kts 93°
2026-05-07 02:51 35.42557 143.18107 37056 ft 554 kts 93°
2026-05-07 02:51 35.42835 143.27532 37085 ft 555 kts 78°
2026-05-07 02:52 35.43869 143.32082 37085 ft 555 kts 66°
2026-05-07 02:52 35.45533 143.36338 37093 ft 552 kts 55°
2026-05-07 02:52 35.47759 143.40147 37095 ft 548 kts 44°
2026-05-07 02:52 35.50356 143.43544 37076 ft 546 kts 42°
2026-05-07 02:53 35.55582 143.50188 37078 ft 544 kts 41°
2026-05-07 02:53 35.60833 143.56885 37060 ft 544 kts 42°
2026-05-07 02:54 35.66074 143.63590 37058 ft 544 kts 41°
2026-05-07 02:54 35.71320 143.70305 37064 ft 545 kts 42°
2026-05-07 02:55 35.76534 143.77002 37067 ft 545 kts 42°
2026-05-07 02:55 35.81740 143.83696 37065 ft 535 kts 43°
2026-05-07 02:56 35.86840 143.90270 37054 ft 529 kts 43°
2026-05-07 02:56 35.91943 143.96856 37057 ft 533 kts 43°
2026-05-07 02:57 35.97025 144.03436 37059 ft 534 kts 43°
2026-05-07 02:57 36.02147 144.10073 37063 ft 534 kts 43°
2026-05-07 02:58 36.07264 144.16734 37065 ft 534 kts 43°
2026-05-07 02:58 36.12380 144.23405 37068 ft 534 kts 43°
2026-05-07 02:59 36.17440 144.30015 37063 ft 527 kts 44°
2026-05-07 02:59 36.22415 144.36531 37058 ft 518 kts 44°
2026-05-07 03:00 36.27385 144.43045 37062 ft 522 kts 44°
2026-05-07 03:00 36.32371 144.49602 37070 ft 523 kts 44°
2026-05-07 03:01 36.37323 144.56122 37077 ft 522 kts 44°
2026-05-07 03:01 36.42286 144.62672 37074 ft 520 kts 44°
2026-05-07 03:02 36.47239 144.69220 37073 ft 521 kts 44°
2026-05-07 03:02 36.52200 144.75793 37098 ft 522 kts 44°
2026-05-07 03:03 36.57137 144.82347 37073 ft 523 kts 44°
2026-05-07 03:03 36.62106 144.88957 37078 ft 523 kts 44°
2026-05-07 03:04 36.67074 144.95579 37072 ft 523 kts 44°
2026-05-07 03:04 36.72043 145.02215 37076 ft 524 kts 44°
2026-05-07 03:05 36.77008 145.08860 37072 ft 523 kts 44°
2026-05-07 03:05 36.81925 145.15455 37072 ft 522 kts 45°
2026-05-07 03:06 36.86859 145.22084 37070 ft 521 kts 45°
2026-05-07 03:06 36.91793 145.28728 37070 ft 523 kts 44°
2026-05-07 03:07 36.96743 145.35407 37076 ft 525 kts 44°
2026-05-07 03:07 37.01672 145.42072 37083 ft 525 kts 45°
2026-05-07 03:08 37.06626 145.48784 37084 ft 524 kts 45°
2026-05-07 03:08 37.11559 145.55481 37080 ft 523 kts 44°
2026-05-07 03:09 37.16499 145.62201 37074 ft 525 kts 44°
2026-05-07 03:09 37.21538 145.68719 37094 ft 523 kts 39°
2026-05-07 03:10 37.26900 145.74903 37078 ft 525 kts 39°
2026-05-07 03:10 37.32268 145.81150 37073 ft 526 kts 39°
2026-05-07 03:11 37.37631 145.87383 37080 ft 524 kts 39°
2026-05-07 03:11 37.42972 145.93612 37079 ft 523 kts 39°
2026-05-07 03:12 37.48264 145.99793 37074 ft 523 kts 39°
2026-05-07 03:12 37.53604 146.06044 37090 ft 525 kts 39°
2026-05-07 03:13 37.58961 146.12327 37093 ft 527 kts 39°
2026-05-07 03:13 37.64323 146.18630 37091 ft 527 kts 39°
2026-05-07 03:14 37.69640 146.24892 37092 ft 526 kts 39°
2026-05-07 03:15 37.77643 146.34343 37094 ft 525 kts 39°
2026-05-07 03:15 37.82968 146.40647 37092 ft 524 kts 39°
2026-05-07 03:16 37.88251 146.46914 37090 ft 524 kts 39°
2026-05-07 03:16 37.93584 146.53253 37097 ft 527 kts 38°
2026-05-07 03:17 37.98929 146.59621 37096 ft 528 kts 39°
2026-05-07 03:17 38.04277 146.66006 37099 ft 528 kts 39°
2026-05-07 03:18 38.09579 146.72348 37099 ft 527 kts 39°
2026-05-07 03:18 38.14903 146.78731 37104 ft 526 kts 39°
2026-05-07 03:19 38.20219 146.85118 37105 ft 526 kts 39°
2026-05-07 03:19 38.25528 146.91509 37094 ft 525 kts 38°
2026-05-07 03:20 38.30826 146.97900 37092 ft 525 kts 39°
2026-05-07 03:20 38.36091 147.04265 37093 ft 526 kts 39°
2026-05-07 03:21 38.41408 147.10707 37099 ft 528 kts 39°
2026-05-07 03:21 38.46730 147.17170 37100 ft 528 kts 38°
2026-05-07 03:22 38.52042 147.23634 37101 ft 526 kts 38°
2026-05-07 03:22 38.57304 147.30049 37090 ft 527 kts 38°
2026-05-07 03:23 38.62606 147.36528 37090 ft 528 kts 38°
2026-05-07 03:23 38.67911 147.43024 37100 ft 528 kts 38°
2026-05-07 03:24 38.73219 147.49539 37104 ft 529 kts 38°
2026-05-07 03:24 38.78527 147.56068 37101 ft 529 kts 38°
2026-05-07 03:25 38.83802 147.62569 37103 ft 530 kts 38°
2026-05-07 03:25 38.89112 147.69129 37097 ft 529 kts 38°
2026-05-07 03:26 38.94395 147.75669 37086 ft 527 kts 38°
2026-05-07 03:26 38.99665 147.82207 37087 ft 526 kts 38°
2026-05-07 03:27 39.04931 147.88755 37082 ft 527 kts 38°
2026-05-07 03:27 39.10161 147.95272 37098 ft 527 kts 38°
2026-05-07 03:28 39.15423 148.01843 37100 ft 527 kts 38°
2026-05-07 03:28 39.20691 148.08435 37091 ft 528 kts 38°
2026-05-07 03:29 39.25964 148.15051 37099 ft 529 kts 38°
2026-05-07 03:29 39.31206 148.21640 37093 ft 530 kts 38°
2026-05-07 03:30 39.36475 148.28279 37092 ft 528 kts 38°
2026-05-07 03:30 39.41720 148.34901 37081 ft 526 kts 38°
2026-05-07 03:31 39.46957 148.41528 37083 ft 527 kts 38°
2026-05-07 03:31 39.52171 148.48141 37104 ft 529 kts 38°
2026-05-07 03:32 39.57424 148.54820 37090 ft 529 kts 38°
2026-05-07 03:32 39.62666 148.61498 37088 ft 527 kts 38°
2026-05-07 03:33 39.67890 148.68168 37083 ft 527 kts 38°
2026-05-07 03:33 39.73078 148.74806 37083 ft 528 kts 38°
2026-05-07 03:34 39.78310 148.81519 37094 ft 528 kts 38°
2026-05-07 03:34 39.83536 148.88236 37083 ft 527 kts 38°
2026-05-07 03:35 39.88744 148.94946 37077 ft 526 kts 38°
2026-05-07 03:35 39.93914 149.01621 37079 ft 528 kts 38°
2026-05-07 03:36 39.99132 149.08376 37082 ft 528 kts 38°
2026-05-07 03:36 40.04331 149.15121 37082 ft 526 kts 38°
2026-05-07 03:37 40.09518 149.21863 37079 ft 526 kts 38°
2026-05-07 03:37 40.14708 149.28626 37087 ft 527 kts 37°
2026-05-07 03:38 40.19848 149.35341 37074 ft 526 kts 38°
2026-05-07 03:38 40.25025 149.42116 37083 ft 526 kts 38°
2026-05-07 03:39 40.30195 149.48901 37079 ft 527 kts 38°
2026-05-07 03:39 40.35371 149.55707 37081 ft 527 kts 38°
2026-05-07 03:40 40.40512 149.62484 37077 ft 527 kts 38°
2026-05-07 03:40 40.45680 149.69324 37079 ft 528 kts 38°
2026-05-07 03:41 40.50829 149.76193 37074 ft 527 kts 38°
2026-05-07 03:41 40.55983 149.83059 37085 ft 527 kts 38°
2026-05-07 03:42 40.61090 149.89894 37075 ft 528 kts 38°
2026-05-07 03:42 40.66233 149.96785 37066 ft 527 kts 38°
2026-05-07 03:43 40.71361 150.03676 37062 ft 526 kts 38°
2026-05-07 03:43 40.76493 150.10583 37069 ft 528 kts 38°
2026-05-07 03:44 40.81606 150.17486 37083 ft 530 kts 38°
2026-05-07 03:44 40.86748 150.24447 37068 ft 528 kts 38°
2026-05-07 03:45 40.91869 150.31388 37057 ft 527 kts 38°
2026-05-07 03:45 40.96980 150.38337 37055 ft 527 kts 38°
2026-05-07 03:46 41.02087 150.45296 37060 ft 527 kts 38°
2026-05-07 03:46 41.07164 150.52229 37062 ft 528 kts 38°
2026-05-07 03:47 41.12282 150.59237 37067 ft 529 kts 38°
2026-05-07 03:47 41.17401 150.66262 37070 ft 530 kts 38°
2026-05-07 03:48 41.22483 150.73254 37062 ft 528 kts 38°
2026-05-07 03:48 41.27572 150.80270 37058 ft 527 kts 38°
2026-05-07 03:49 41.32656 150.87298 37055 ft 527 kts 38°
2026-05-07 03:49 41.37727 150.94325 37065 ft 525 kts 38°
2026-05-07 03:50 41.42782 151.01343 37057 ft 526 kts 38°
2026-05-07 03:50 41.47813 151.08347 37058 ft 527 kts 38°
2026-05-07 03:51 41.52877 151.15417 37058 ft 526 kts 38°
2026-05-07 03:51 41.57927 151.22481 37057 ft 525 kts 38°
2026-05-07 03:52 41.62965 151.29545 37062 ft 525 kts 38°
2026-05-07 03:52 41.68003 151.36627 37059 ft 525 kts 38°
2026-05-07 03:53 41.73000 151.43669 37050 ft 525 kts 38°
2026-05-07 03:53 41.78021 151.50761 37045 ft 525 kts 38°
2026-05-07 03:54 41.83037 151.57864 37058 ft 524 kts 38°
2026-05-07 03:54 41.88051 151.64981 37060 ft 525 kts 38°
2026-05-07 03:55 41.93038 151.72077 37057 ft 527 kts 38°
2026-05-07 03:55 41.98072 151.79257 37059 ft 529 kts 38°
2026-05-07 03:56 42.03118 151.86475 37051 ft 529 kts 39°
2026-05-07 03:56 42.08152 151.93692 37052 ft 528 kts 39°
2026-05-07 03:57 42.13140 152.00859 37047 ft 527 kts 39°
2026-05-07 03:57 42.18142 152.08066 37045 ft 526 kts 39°
2026-05-07 03:58 42.23142 152.15285 37045 ft 527 kts 39°
2026-05-07 03:58 42.28145 152.22530 37045 ft 528 kts 39°
2026-05-07 03:59 42.33141 152.29782 37051 ft 527 kts 39°
2026-05-07 03:59 42.38091 152.36983 37044 ft 526 kts 39°
2026-05-07 04:00 42.43068 152.44244 37038 ft 526 kts 39°
2026-05-07 04:00 42.48034 152.51507 37040 ft 525 kts 39°
2026-05-07 04:01 42.52995 152.58777 37038 ft 526 kts 39°
2026-05-07 04:01 42.57962 152.66079 37063 ft 527 kts 39°
2026-05-07 04:02 42.62899 152.73355 37043 ft 527 kts 39°
2026-05-07 04:02 42.67848 152.80665 37038 ft 525 kts 39°
2026-05-07 04:03 42.72797 152.87992 37038 ft 527 kts 39°
2026-05-07 04:03 42.77748 152.95346 37033 ft 526 kts 39°
2026-05-07 04:04 42.82649 153.02640 37033 ft 525 kts 39°
2026-05-07 04:04 42.87575 153.09990 37034 ft 525 kts 39°
2026-05-07 04:05 42.92494 153.17349 37030 ft 525 kts 39°
2026-05-07 04:05 42.97416 153.24733 37029 ft 525 kts 39°
2026-05-07 04:06 43.02296 153.32071 37029 ft 525 kts 40°
2026-05-07 04:06 43.07208 153.39476 37025 ft 525 kts 40°
2026-05-07 04:07 43.12103 153.46876 37027 ft 524 kts 40°
2026-05-07 04:07 43.16996 153.54289 37024 ft 525 kts 40°
2026-05-07 04:08 43.21862 153.61684 37029 ft 527 kts 40°
2026-05-07 04:08 43.26758 153.69141 37029 ft 526 kts 40°
2026-05-07 04:09 43.31646 153.76605 37026 ft 525 kts 40°
2026-05-07 04:09 43.36524 153.84075 37026 ft 525 kts 40°
2026-05-07 04:10 43.41400 153.91560 37011 ft 524 kts 40°
2026-05-07 04:10 43.46221 153.98982 37007 ft 523 kts 40°
2026-05-07 04:11 43.51074 154.06468 37018 ft 525 kts 40°
2026-05-07 04:11 43.55938 154.13994 37011 ft 527 kts 40°
2026-05-07 04:12 43.60820 154.21567 37024 ft 529 kts 40°
2026-05-07 04:12 43.65699 154.29158 37022 ft 529 kts 40°
2026-05-07 04:13 43.70544 154.36713 37013 ft 529 kts 40°
2026-05-07 04:13 43.75405 154.44317 37014 ft 527 kts 40°
2026-05-07 04:14 43.80252 154.51914 37004 ft 526 kts 40°
2026-05-07 04:14 43.85057 154.59468 37022 ft 526 kts 40°
2026-05-07 04:15 43.89895 154.67091 37009 ft 528 kts 40°
2026-05-07 04:15 43.94748 154.74762 37008 ft 529 kts 40°
2026-05-07 04:16 43.99602 154.82453 37007 ft 531 kts 40°
2026-05-07 04:16 44.04453 154.90165 37007 ft 529 kts 40°
2026-05-07 04:17 44.09250 154.97807 36998 ft 527 kts 40°
2026-05-07 04:17 44.14066 155.05500 36998 ft 527 kts 40°
2026-05-07 04:18 44.18868 155.13233 37007 ft 529 kts 41°
2026-05-07 04:18 44.23573 155.21146 37005 ft 532 kts 41°
2026-05-07 04:19 44.28324 155.28985 37006 ft 533 kts 41°
2026-05-07 04:19 44.33069 155.36929 37028 ft 532 kts 42°
2026-05-07 04:20 44.37818 155.44852 37000 ft 531 kts 42°
2026-05-07 04:20 44.42538 155.52771 36996 ft 530 kts 42°
2026-05-07 04:21 44.49587 155.64623 37010 ft 532 kts 42°
2026-05-07 04:21 44.54307 155.72599 37007 ft 531 kts 42°
2026-05-07 04:22 44.59022 155.80577 37002 ft 531 kts 42°
2026-05-07 04:22 44.63724 155.88561 37001 ft 530 kts 42°
2026-05-07 04:23 44.68386 155.96496 36997 ft 530 kts 42°
2026-05-07 04:23 44.73066 156.04487 36989 ft 529 kts 42°
2026-05-07 04:24 44.77744 156.12493 36993 ft 530 kts 43°
2026-05-07 04:24 44.82429 156.20537 36991 ft 532 kts 43°
2026-05-07 04:25 44.87113 156.28604 36981 ft 532 kts 43°
2026-05-07 04:25 44.91774 156.36647 36990 ft 534 kts 43°
2026-05-07 04:26 44.96471 156.44783 36991 ft 534 kts 43°
2026-05-07 04:26 45.01158 156.52922 36988 ft 534 kts 43°
2026-05-07 04:27 45.05841 156.61076 36988 ft 534 kts 43°
2026-05-07 04:27 45.10513 156.69236 36987 ft 534 kts 43°
2026-05-07 04:28 45.15149 156.77355 36983 ft 534 kts 43°
2026-05-07 04:28 45.19810 156.85542 36996 ft 534 kts 43°
2026-05-07 04:29 45.24486 156.93776 36989 ft 537 kts 43°
2026-05-07 04:29 45.29163 157.02045 37005 ft 537 kts 43°
2026-05-07 04:30 45.33791 157.10245 36985 ft 535 kts 43°
2026-05-07 04:30 45.38435 157.18497 36982 ft 534 kts 43°
2026-05-07 04:31 45.43069 157.26756 36981 ft 534 kts 43°
2026-05-07 04:31 45.47700 157.35034 36984 ft 534 kts 43°
2026-05-07 04:32 45.52328 157.43331 36988 ft 534 kts 43°
2026-05-07 04:32 45.56928 157.51600 36985 ft 537 kts 43°
2026-05-07 04:33 45.61574 157.59982 36996 ft 539 kts 43°
2026-05-07 04:33 45.66204 157.68359 36983 ft 536 kts 43°
2026-05-07 04:34 45.70784 157.76663 36978 ft 535 kts 43°
2026-05-07 04:34 45.75384 157.85035 36977 ft 535 kts 43°
2026-05-07 04:35 45.79978 157.93418 36995 ft 535 kts 43°
2026-05-07 04:35 45.84560 158.01806 36986 ft 534 kts 44°
2026-05-07 04:36 45.89136 158.10203 36989 ft 536 kts 44°
2026-05-07 04:36 45.93707 158.18622 36994 ft 539 kts 44°
2026-05-07 04:37 45.98296 158.27101 36984 ft 536 kts 44°
2026-05-07 04:37 46.02861 158.35554 36980 ft 534 kts 44°
2026-05-07 04:38 46.07419 158.44024 36981 ft 536 kts 44°
2026-05-07 04:38 46.11980 158.52526 36987 ft 536 kts 44°
2026-05-07 04:39 46.16495 158.60967 36985 ft 535 kts 44°
2026-05-07 04:39 46.21030 158.69468 36982 ft 535 kts 44°
2026-05-07 04:40 46.25585 158.78033 37004 ft 539 kts 44°
2026-05-07 04:40 46.30137 158.86628 36988 ft 537 kts 44°
2026-05-07 04:41 46.34643 158.95148 36982 ft 537 kts 44°
2026-05-07 04:41 46.39168 159.03742 36984 ft 536 kts 44°
2026-05-07 04:42 46.43685 159.12340 36985 ft 536 kts 44°
2026-05-07 04:42 46.48186 159.20939 36981 ft 535 kts 44°
2026-05-07 04:43 46.52681 159.29546 36983 ft 536 kts 44°
2026-05-07 04:43 46.57160 159.38154 36989 ft 539 kts 44°
2026-05-07 04:44 46.61671 159.46854 36985 ft 538 kts 44°
2026-05-07 04:44 46.66158 159.55531 36981 ft 536 kts 44°
2026-05-07 04:45 46.70637 159.64215 36981 ft 537 kts 44°
2026-05-07 04:45 46.75088 159.72879 36981 ft 538 kts 44°
2026-05-07 04:46 46.79576 159.81639 36987 ft 539 kts 45°
2026-05-07 04:46 46.84064 159.90426 36989 ft 540 kts 45°
2026-05-07 04:47 46.88542 159.99225 36982 ft 540 kts 45°
2026-05-07 04:47 46.93016 160.08043 36983 ft 539 kts 45°
2026-05-07 04:48 46.97440 160.16789 36981 ft 538 kts 45°
2026-05-07 04:48 47.01884 160.25599 36974 ft 538 kts 45°
2026-05-07 04:49 47.06321 160.34429 36988 ft 538 kts 45°
2026-05-07 04:49 47.10744 160.43257 36979 ft 536 kts 45°
2026-05-07 04:50 47.15121 160.52019 36983 ft 536 kts 45°
2026-05-07 04:50 47.19524 160.60864 36983 ft 536 kts 45°
2026-05-07 04:51 47.23929 160.69740 36980 ft 537 kts 45°
2026-05-07 04:51 47.28317 160.78614 36980 ft 536 kts 45°
2026-05-07 04:52 47.32667 160.87432 36981 ft 536 kts 45°
2026-05-07 04:52 47.37040 160.96333 36978 ft 536 kts 45°
2026-05-07 04:53 47.41409 161.05250 36974 ft 535 kts 45°
2026-05-07 04:53 47.45756 161.14154 36972 ft 534 kts 46°
2026-05-07 04:54 47.50073 161.23018 36972 ft 536 kts 46°
2026-05-07 04:54 47.54425 161.31992 36996 ft 537 kts 46°
2026-05-07 04:55 47.58715 161.41079 36972 ft 539 kts 48°
2026-05-07 04:55 47.62936 161.50230 36971 ft 537 kts 46°
2026-05-07 04:56 47.67161 161.59266 36968 ft 537 kts 47°
2026-05-07 04:56 47.71376 161.68424 36970 ft 537 kts 47°
2026-05-07 04:57 47.75604 161.77565 36966 ft 536 kts 47°
2026-05-07 04:57 47.79806 161.86726 36961 ft 536 kts 47°
2026-05-07 04:58 47.83976 161.95821 36959 ft 537 kts 47°
2026-05-07 04:58 47.88180 162.05036 36961 ft 538 kts 47°
2026-05-07 04:59 47.92380 162.14269 36962 ft 538 kts 47°
2026-05-07 04:59 47.96572 162.23515 36957 ft 538 kts 47°
2026-05-07 05:00 48.00729 162.32715 36987 ft 538 kts 47°
2026-05-07 05:00 48.04909 162.41998 36955 ft 538 kts 48°
2026-05-07 05:01 48.09076 162.51286 36957 ft 537 kts 48°
2026-05-07 05:01 48.13233 162.60579 36947 ft 537 kts 48°
2026-05-07 05:02 48.17377 162.69875 36941 ft 537 kts 48°
2026-05-07 05:02 48.21494 162.79144 36942 ft 538 kts 48°
2026-05-07 05:03 48.25641 162.88508 36951 ft 540 kts 49°
2026-05-07 05:03 48.29783 162.97904 36942 ft 540 kts 49°
2026-05-07 05:04 48.33917 163.07305 36941 ft 539 kts 49°
2026-05-07 05:04 48.38014 163.16660 36931 ft 539 kts 49°
2026-05-07 05:05 48.42126 163.26077 36919 ft 538 kts 49°
2026-05-07 05:05 48.46226 163.35502 36919 ft 538 kts 49°
2026-05-07 05:06 48.50323 163.44950 36923 ft 539 kts 49°
2026-05-07 05:06 48.53725 163.52826 36919 ft 539 kts 49°
2026-05-07 05:07 48.58471 163.63842 36916 ft 539 kts 50°
2026-05-07 05:07 48.62544 163.73342 36925 ft 538 kts 50°
2026-05-07 05:08 48.65919 163.81234 36909 ft 537 kts 50°
2026-05-07 05:08 48.69969 163.90734 36909 ft 538 kts 50°
2026-05-07 05:09 48.74674 164.01817 36914 ft 539 kts 50°
2026-05-07 05:09 48.78729 164.11402 36920 ft 541 kts 50°
2026-05-07 05:10 48.82084 164.19366 36896 ft 537 kts 50°
2026-05-07 05:10 48.86100 164.28917 36890 ft 536 kts 50°
2026-05-07 05:11 48.90749 164.40028 36895 ft 536 kts 50°
2026-05-07 05:11 48.94748 164.49614 36873 ft 537 kts 51°
2026-05-07 05:12 48.98062 164.57591 36887 ft 537 kts 51°
2026-05-07 05:12 49.02041 164.67199 36888 ft 536 kts 51°
2026-05-07 05:13 49.06016 164.76828 36877 ft 536 kts 51°
2026-05-07 05:13 49.09981 164.86468 36864 ft 538 kts 51°
2026-05-07 05:14 49.13967 164.96194 36879 ft 542 kts 52°
2026-05-07 05:14 49.17926 165.05898 36876 ft 542 kts 52°
2026-05-07 05:15 49.21903 165.15670 36875 ft 542 kts 52°
2026-05-07 05:15 49.25879 165.25482 36867 ft 543 kts 52°
2026-05-07 05:16 49.29838 165.35293 36864 ft 540 kts 52°
2026-05-07 05:16 49.33753 165.45019 36856 ft 540 kts 52°
2026-05-07 05:17 49.37687 165.54836 36856 ft 540 kts 52°
2026-05-07 05:17 49.41610 165.64660 36853 ft 539 kts 52°
2026-05-07 05:18 49.45515 165.74477 36840 ft 538 kts 53°
2026-05-07 05:18 49.49413 165.84310 36842 ft 539 kts 53°
2026-05-07 05:19 49.53287 165.94123 36847 ft 541 kts 53°
2026-05-07 05:19 49.57187 166.04034 36837 ft 540 kts 53°
2026-05-07 05:20 49.61064 166.13931 36835 ft 539 kts 53°
2026-05-07 05:20 49.64927 166.23821 36830 ft 538 kts 53°
2026-05-07 05:21 49.70453 166.38862 36836 ft 540 kts 55°
2026-05-07 05:22 49.74102 166.48987 36817 ft 538 kts 56°
2026-05-07 05:22 49.77750 166.59079 36818 ft 537 kts 56°
2026-05-07 05:23 49.81386 166.69194 36818 ft 538 kts 56°
2026-05-07 05:23 49.84987 166.79261 36811 ft 538 kts 56°
2026-05-07 05:24 49.88605 166.89398 36802 ft 538 kts 56°
2026-05-07 05:24 49.92213 166.99561 36812 ft 538 kts 56°
2026-05-07 05:25 49.95811 167.09727 36807 ft 536 kts 56°
2026-05-07 05:25 49.99369 167.19824 36802 ft 536 kts 57°
2026-05-07 05:26 50.02932 167.29975 36799 ft 534 kts 57°
2026-05-07 05:26 50.06483 167.40130 36796 ft 535 kts 57°
2026-05-07 05:27 50.10027 167.50308 36794 ft 535 kts 57°
2026-05-07 05:27 50.13542 167.60441 36792 ft 534 kts 57°
2026-05-07 05:28 50.17057 167.70619 36794 ft 533 kts 57°
2026-05-07 05:28 50.20563 167.80804 36789 ft 533 kts 57°
2026-05-07 05:29 50.24059 167.91009 36789 ft 533 kts 57°
2026-05-07 05:29 50.27523 168.01154 36777 ft 531 kts 58°
2026-05-07 05:30 50.30978 168.11320 36782 ft 529 kts 58°
2026-05-07 05:30 50.34427 168.21500 36777 ft 530 kts 58°
2026-05-07 05:31 50.37871 168.31716 36781 ft 531 kts 58°
2026-05-07 05:31 50.41314 168.41965 36758 ft 531 kts 59°
2026-05-07 05:32 50.44708 168.52116 36753 ft 528 kts 59°
2026-05-07 05:32 50.48111 168.62324 36752 ft 528 kts 59°
2026-05-07 05:33 50.51505 168.72555 36746 ft 528 kts 59°
2026-05-07 05:33 50.54888 168.82792 36761 ft 528 kts 59°
2026-05-07 05:34 50.58236 168.92967 36774 ft 527 kts 59°
2026-05-07 05:34 50.61590 169.03199 36754 ft 524 kts 60°
2026-05-07 05:35 50.64925 169.13416 36749 ft 525 kts 60°
2026-05-07 05:35 50.68263 169.23680 36747 ft 527 kts 60°
2026-05-07 05:36 50.71561 169.33873 36747 ft 524 kts 60°
2026-05-07 05:36 50.74865 169.44116 36745 ft 523 kts 60°
2026-05-07 05:37 50.78159 169.54374 36743 ft 523 kts 60°
2026-05-07 05:37 50.81445 169.64649 36747 ft 524 kts 60°
2026-05-07 05:38 50.84699 169.74871 36747 ft 523 kts 61°
2026-05-07 05:38 50.87961 169.85157 36744 ft 522 kts 61°
2026-05-07 05:39 50.91209 169.95440 36744 ft 522 kts 61°
2026-05-07 05:39 50.94452 170.05751 36739 ft 522 kts 61°
2026-05-07 05:40 50.97658 170.15988 36739 ft 521 kts 62°
2026-05-07 05:40 51.00870 170.26286 36738 ft 521 kts 62°
2026-05-07 05:41 51.04080 170.36622 36743 ft 522 kts 62°
2026-05-07 05:41 51.07289 170.47001 36743 ft 524 kts 62°
2026-05-07 05:42 51.10472 170.57338 36739 ft 523 kts 62°
2026-05-07 05:42 51.13653 170.67711 36735 ft 521 kts 62°
2026-05-07 05:43 51.16822 170.78090 36728 ft 521 kts 62°
2026-05-07 05:43 51.19979 170.88474 36730 ft 521 kts 62°
2026-05-07 05:44 51.23107 170.98807 36729 ft 521 kts 62°
2026-05-07 05:44 51.26247 171.09223 36729 ft 521 kts 62°
2026-05-07 05:45 51.29379 171.19658 36724 ft 521 kts 62°
2026-05-07 05:45 51.32480 171.30036 36724 ft 521 kts 63°
2026-05-07 05:46 51.35592 171.40495 36729 ft 521 kts 63°
2026-05-07 05:46 51.38695 171.50969 36730 ft 521 kts 62°
2026-05-07 05:46 51.40484 171.55979 36754 ft 517 kts 51°
2026-05-07 05:47 51.42764 171.60405 36739 ft 516 kts 46°
2026-05-07 05:47 51.47523 171.69037 36728 ft 516 kts 46°
2026-05-07 05:48 51.52233 171.77635 36737 ft 516 kts 46°
2026-05-07 05:48 51.56973 171.86311 36725 ft 516 kts 46°
2026-05-07 05:49 51.61701 171.94993 36728 ft 515 kts 46°
2026-05-07 05:49 51.66375 172.03610 36723 ft 514 kts 46°
2026-05-07 05:50 51.71071 172.12291 36722 ft 514 kts 47°
2026-05-07 05:50 51.75769 172.21011 36722 ft 516 kts 47°
2026-05-07 05:51 51.80472 172.29766 36722 ft 516 kts 47°
2026-05-07 05:51 51.85130 172.38471 36721 ft 514 kts 47°
2026-05-07 05:52 51.89790 172.47208 36709 ft 512 kts 47°
2026-05-07 05:52 51.94445 172.55967 36709 ft 513 kts 47°
2026-05-07 05:53 51.99106 172.64767 36721 ft 515 kts 47°
2026-05-07 05:53 52.03756 172.73577 36720 ft 513 kts 47°
2026-05-07 05:54 52.08349 172.82309 36708 ft 510 kts 48°
2026-05-07 05:54 52.12950 172.91087 36717 ft 510 kts 48°
2026-05-07 05:55 52.17553 172.99899 36713 ft 512 kts 48°
2026-05-07 05:55 52.22162 173.08756 36730 ft 513 kts 48°
2026-05-07 05:56 52.26760 173.17621 36723 ft 510 kts 49°
2026-05-07 05:56 52.31298 173.26399 36715 ft 509 kts 49°
2026-05-07 05:57 52.35856 173.35249 36731 ft 508 kts 49°
2026-05-07 05:57 52.40398 173.44099 36732 ft 507 kts 49°
2026-05-07 05:58 52.44927 173.52955 36733 ft 507 kts 49°
2026-05-07 05:58 52.49421 173.61773 36734 ft 507 kts 49°
2026-05-07 05:59 52.53937 173.70664 36728 ft 507 kts 49°
2026-05-07 05:59 52.58441 173.79565 36732 ft 506 kts 49°
2026-05-07 06:00 52.62930 173.88466 36738 ft 505 kts 50°
2026-05-07 06:00 52.67377 173.97316 36737 ft 506 kts 50°
2026-05-07 06:01 52.71838 174.06306 36748 ft 507 kts 55°
2026-05-07 06:01 52.75654 174.16097 36733 ft 508 kts 58°
2026-05-07 06:02 52.79432 174.25954 36733 ft 508 kts 57°
2026-05-07 06:02 52.83217 174.35805 36727 ft 507 kts 58°
2026-05-07 06:03 52.86949 174.45609 36719 ft 507 kts 58°
2026-05-07 06:03 52.90698 174.55455 36735 ft 505 kts 58°
2026-05-07 06:04 52.94424 174.65307 36724 ft 505 kts 58°
2026-05-07 06:04 52.98157 174.75199 36731 ft 505 kts 58°
2026-05-07 06:05 53.01849 174.85032 36725 ft 505 kts 58°
2026-05-07 06:05 53.05554 174.94928 36722 ft 504 kts 59°
2026-05-07 06:06 53.09235 175.04808 36718 ft 501 kts 59°
2026-05-07 06:06 53.12906 175.14694 36726 ft 502 kts 59°
2026-05-07 06:07 53.16548 175.24542 36725 ft 503 kts 59°
2026-05-07 06:07 53.20208 175.34478 36732 ft 502 kts 59°
2026-05-07 06:08 53.23848 175.44401 36728 ft 501 kts 59°
2026-05-07 06:08 53.27473 175.54320 36723 ft 500 kts 59°
2026-05-07 06:09 53.31087 175.64249 36728 ft 501 kts 59°
2026-05-07 06:09 53.34682 175.74165 36735 ft 502 kts 60°
2026-05-07 06:10 53.38303 175.84192 36747 ft 504 kts 60°
2026-05-07 06:10 53.41919 175.94244 36742 ft 502 kts 60°
2026-05-07 06:11 53.45508 176.04265 36736 ft 500 kts 60°
2026-05-07 06:11 53.49054 176.14205 36739 ft 499 kts 60°
2026-05-07 06:12 53.52613 176.24221 36740 ft 499 kts 60°
2026-05-07 06:12 53.56164 176.34255 36740 ft 499 kts 61°
2026-05-07 06:13 53.59706 176.44302 36747 ft 498 kts 61°
2026-05-07 06:13 53.63230 176.54342 36748 ft 498 kts 61°
2026-05-07 06:14 53.66720 176.64323 36745 ft 498 kts 61°
2026-05-07 06:14 53.70237 176.74425 36755 ft 500 kts 61°
2026-05-07 06:15 53.73753 176.84562 36760 ft 499 kts 62°
2026-05-07 06:15 53.77245 176.94672 36757 ft 497 kts 62°
2026-05-07 06:16 53.80691 177.04692 36753 ft 496 kts 62°
2026-05-07 06:16 53.84159 177.14816 36760 ft 498 kts 62°
2026-05-07 06:17 53.87626 177.24978 36762 ft 499 kts 62°
2026-05-07 06:17 53.91091 177.35178 36771 ft 500 kts 62°
2026-05-07 06:18 53.94526 177.45328 36758 ft 497 kts 63°
2026-05-07 06:18 53.97954 177.55503 36758 ft 496 kts 63°
2026-05-07 06:19 54.01368 177.65677 36765 ft 496 kts 63°
2026-05-07 06:19 54.04774 177.75872 36762 ft 495 kts 63°
2026-05-07 06:20 54.08169 177.86072 36767 ft 495 kts 63°
2026-05-07 06:20 54.11531 177.96215 36774 ft 494 kts 63°
2026-05-07 06:21 54.14892 178.06403 36773 ft 493 kts 63°
2026-05-07 06:21 54.18251 178.16625 36781 ft 495 kts 63°
2026-05-07 06:22 54.21611 178.26894 36785 ft 496 kts 64°
2026-05-07 06:22 54.26624 178.42284 36775 ft 494 kts 64°
2026-05-07 06:23 54.29945 178.52539 36795 ft 492 kts 64°
2026-05-07 06:23 54.33249 178.62784 36793 ft 491 kts 64°
2026-05-07 06:24 54.36545 178.73042 36800 ft 491 kts 64°
2026-05-07 06:24 54.39809 178.83249 36801 ft 492 kts 64°
2026-05-07 06:25 54.43094 178.93563 36786 ft 492 kts 64°
2026-05-07 06:25 54.46362 179.03866 36820 ft 490 kts 65°
2026-05-07 06:26 54.49606 179.14140 36806 ft 488 kts 65°
2026-05-07 06:26 54.52813 179.24339 36815 ft 487 kts 65°
2026-05-07 06:27 54.56026 179.34603 36819 ft 488 kts 65°
2026-05-07 06:27 54.59243 179.44919 36827 ft 489 kts 65°
2026-05-07 06:28 54.62446 179.55236 36829 ft 486 kts 66°
2026-05-07 06:28 54.65625 179.65524 36842 ft 486 kts 66°
2026-05-07 06:29 54.68774 179.75755 36840 ft 485 kts 66°
2026-05-07 06:29 54.71936 179.86076 36849 ft 486 kts 66°
2026-05-07 06:30 54.75088 179.96405 36848 ft 486 kts 66°
2026-05-07 06:30 54.78227 -179.93263 36858 ft 484 kts 66°
2026-05-07 06:31 54.81336 -179.82979 36861 ft 486 kts 66°
2026-05-07 06:31 54.84472 -179.72572 36866 ft 487 kts 66°
2026-05-07 06:32 54.87597 -179.62148 36870 ft 486 kts 66°
2026-05-07 06:32 54.90703 -179.51744 36873 ft 485 kts 66°
2026-05-07 06:33 54.93792 -179.41349 36870 ft 483 kts 67°
2026-05-07 06:33 54.96845 -179.31030 36878 ft 483 kts 67°
2026-05-07 06:34 54.99915 -179.20608 36880 ft 484 kts 67°
2026-05-07 06:34 55.02984 -179.10147 36886 ft 485 kts 67°
2026-05-07 06:35 55.06046 -178.99660 36898 ft 485 kts 67°
2026-05-07 06:35 55.09077 -178.89233 36876 ft 485 kts 67°
2026-05-07 06:36 55.12119 -178.78721 36891 ft 485 kts 67°
2026-05-07 06:36 55.15157 -178.68176 36896 ft 486 kts 67°
2026-05-07 06:37 55.18188 -178.57608 36907 ft 485 kts 68°
2026-05-07 06:37 55.21191 -178.47048 36901 ft 484 kts 68°
2026-05-07 06:38 55.24129 -178.36555 36904 ft 482 kts 68°
2026-05-07 06:38 55.27085 -178.26021 36912 ft 482 kts 68°
2026-05-07 06:39 55.30030 -178.15438 36915 ft 484 kts 68°
2026-05-07 06:39 55.32982 -178.04806 36918 ft 485 kts 68°
2026-05-07 06:40 55.35899 -177.94240 36930 ft 483 kts 68°
2026-05-07 06:40 55.38820 -177.83612 36930 ft 482 kts 68°
2026-05-07 06:41 55.41724 -177.72997 36927 ft 481 kts 68°
2026-05-07 06:41 55.44623 -177.62351 36930 ft 483 kts 68°
2026-05-07 06:42 55.47520 -177.51666 36948 ft 483 kts 68°
2026-05-07 06:42 55.50389 -177.41030 36945 ft 483 kts 68°
2026-05-07 06:43 55.53262 -177.30330 36948 ft 482 kts 69°
2026-05-07 06:43 55.56118 -177.19644 36937 ft 480 kts 68°
2026-05-07 06:44 55.58965 -177.08938 36951 ft 482 kts 68°
2026-05-07 06:44 55.61796 -176.98251 36953 ft 483 kts 69°
2026-05-07 06:45 55.64635 -176.87474 36962 ft 483 kts 69°
2026-05-07 06:45 55.67467 -176.76676 36970 ft 483 kts 69°
2026-05-07 06:46 55.70288 -176.65867 36977 ft 483 kts 69°
2026-05-07 06:46 55.73079 -176.55120 36979 ft 483 kts 69°
2026-05-07 06:47 55.75883 -176.44271 36978 ft 483 kts 69°
2026-05-07 06:47 55.78676 -176.33415 36977 ft 483 kts 69°
2026-05-07 06:48 55.81455 -176.22557 36977 ft 483 kts 69°
2026-05-07 06:48 55.84225 -176.11685 36985 ft 482 kts 69°
2026-05-07 06:49 55.86962 -176.00886 36991 ft 482 kts 69°
2026-05-07 06:49 55.89713 -175.89981 36999 ft 484 kts 69°
2026-05-07 06:50 55.92463 -175.79028 37006 ft 483 kts 69°
2026-05-07 06:50 55.95176 -175.68167 37006 ft 482 kts 69°
2026-05-07 06:51 55.97892 -175.57241 37005 ft 481 kts 69°
2026-05-07 06:51 56.00598 -175.46296 36990 ft 482 kts 69°
2026-05-07 06:52 56.03298 -175.35325 37013 ft 483 kts 69°
2026-05-07 06:52 56.05995 -175.24310 37015 ft 483 kts 69°
2026-05-07 06:53 56.08662 -175.13368 37016 ft 482 kts 69°
2026-05-07 06:53 56.11330 -175.02358 37021 ft 482 kts 69°
2026-05-07 06:54 56.13992 -174.91323 37020 ft 482 kts 69°
2026-05-07 06:54 56.16639 -174.80292 37021 ft 482 kts 69°
2026-05-07 06:55 56.19269 -174.69274 37028 ft 484 kts 70°
2026-05-07 06:55 56.21910 -174.58157 37027 ft 484 kts 69°
2026-05-07 06:56 56.24540 -174.47024 37030 ft 484 kts 69°
2026-05-07 06:56 56.27163 -174.35868 37031 ft 484 kts 70°
2026-05-07 06:57 56.29755 -174.24785 37027 ft 484 kts 70°
2026-05-07 06:57 56.32359 -174.13589 37036 ft 486 kts 69°
2026-05-07 06:58 56.34958 -174.02361 37035 ft 485 kts 69°
2026-05-07 06:58 56.37542 -173.91139 37038 ft 484 kts 70°
2026-05-07 06:59 56.40109 -173.79928 37035 ft 483 kts 70°
2026-05-07 06:59 56.42645 -173.68793 37039 ft 483 kts 69°
2026-05-07 07:00 56.45196 -173.57555 37042 ft 484 kts 70°
2026-05-07 07:00 56.47773 -173.46301 37051 ft 484 kts 70°
2026-05-07 07:01 56.50319 -173.35037 37051 ft 483 kts 70°
2026-05-07 07:01 56.52843 -173.23856 37052 ft 483 kts 70°
2026-05-07 07:02 56.55370 -173.12583 37058 ft 483 kts 70°
2026-05-07 07:02 56.57891 -173.01280 37061 ft 484 kts 70°
2026-05-07 07:03 56.60418 -172.89889 37067 ft 487 kts 69°
2026-05-07 07:03 56.62919 -172.78556 37072 ft 486 kts 70°
2026-05-07 07:04 56.65427 -172.67121 37067 ft 488 kts 69°
2026-05-07 07:04 56.67930 -172.55657 37067 ft 488 kts 69°
2026-05-07 07:05 56.70420 -172.44180 37074 ft 488 kts 70°
2026-05-07 07:05 56.72903 -172.32674 37087 ft 490 kts 69°
2026-05-07 07:06 56.75369 -172.21183 37086 ft 490 kts 69°
2026-05-07 07:06 56.77838 -172.09610 37086 ft 490 kts 69°
2026-05-07 07:07 56.80296 -171.98030 37089 ft 489 kts 69°
2026-05-07 07:07 56.82741 -171.86441 37094 ft 489 kts 69°
2026-05-07 07:08 56.85157 -171.74914 37099 ft 491 kts 68°
2026-05-07 07:08 56.87604 -171.63197 37102 ft 494 kts 68°
2026-05-07 07:09 56.90035 -171.51467 37105 ft 492 kts 69°
2026-05-07 07:09 56.92453 -171.39744 37103 ft 492 kts 69°
2026-05-07 07:10 56.94840 -171.28097 37100 ft 492 kts 69°
2026-05-07 07:10 56.97236 -171.16341 37113 ft 492 kts 69°
2026-05-07 07:11 56.99621 -171.04566 37106 ft 494 kts 68°
2026-05-07 07:11 57.02000 -170.92753 37110 ft 493 kts 68°
2026-05-07 07:12 57.04351 -170.81011 37111 ft 493 kts 69°
2026-05-07 07:12 57.06699 -170.69212 37121 ft 490 kts 69°
2026-05-07 07:13 57.09026 -170.57448 37119 ft 489 kts 68°
2026-05-07 07:13 57.11341 -170.45672 37123 ft 490 kts 69°
2026-05-07 07:14 57.13649 -170.33868 37126 ft 490 kts 69°
2026-05-07 07:14 57.15927 -170.22139 37125 ft 489 kts 69°
2026-05-07 07:15 57.18327 -170.10412 37128 ft 490 kts 68°
2026-05-07 07:15 57.20711 -169.98624 37134 ft 491 kts 68°
2026-05-07 07:16 57.23084 -169.86795 37137 ft 492 kts 68°
2026-05-07 07:16 57.25440 -169.75033 37135 ft 493 kts 68°
2026-05-07 07:17 57.27801 -169.63131 37141 ft 493 kts 68°
2026-05-07 07:17 57.30153 -169.51233 37142 ft 492 kts 68°
2026-05-07 07:18 57.32486 -169.39335 37141 ft 491 kts 68°
2026-05-07 07:18 57.34790 -169.27533 37139 ft 491 kts 68°
2026-05-07 07:19 57.37094 -169.15643 37146 ft 491 kts 68°
2026-05-07 07:19 57.39403 -169.03669 37150 ft 495 kts 68°
2026-05-07 07:20 57.41706 -168.91636 37148 ft 495 kts 68°
2026-05-07 07:20 57.44000 -168.79586 37145 ft 495 kts 68°
2026-05-07 07:21 57.46265 -168.67611 37148 ft 494 kts 68°
2026-05-07 07:21 57.48530 -168.55559 37146 ft 493 kts 68°
2026-05-07 07:22 57.50781 -168.43509 37151 ft 494 kts 68°
2026-05-07 07:22 57.53021 -168.31438 37151 ft 494 kts 68°
2026-05-07 07:23 57.55235 -168.19431 37152 ft 494 kts 69°
2026-05-07 07:23 57.57454 -168.07323 37152 ft 494 kts 69°
2026-05-07 07:24 57.59661 -167.95202 37154 ft 494 kts 69°
2026-05-07 07:24 57.61858 -167.83051 37172 ft 494 kts 69°
2026-05-07 07:25 57.65108 -167.64936 37154 ft 492 kts 69°
2026-05-07 07:26 57.67264 -167.52824 37155 ft 492 kts 69°
2026-05-07 07:26 57.69409 -167.40692 37154 ft 492 kts 69°
2026-05-07 07:27 57.71541 -167.28551 37154 ft 492 kts 69°
2026-05-07 07:27 57.73664 -167.16382 37154 ft 492 kts 69°
2026-05-07 07:28 57.75760 -167.04287 37156 ft 492 kts 70°
2026-05-07 07:28 57.77860 -166.92089 37156 ft 492 kts 70°
2026-05-07 07:29 57.79942 -166.79909 37157 ft 492 kts 70°
2026-05-07 07:29 57.82020 -166.67669 37159 ft 490 kts 70°
2026-05-07 07:30 57.84064 -166.55553 37154 ft 491 kts 70°
2026-05-07 07:30 57.86114 -166.43321 37165 ft 493 kts 70°
2026-05-07 07:31 57.88162 -166.31007 37166 ft 494 kts 70°
2026-05-07 07:31 57.90198 -166.18683 37163 ft 493 kts 70°
2026-05-07 07:32 57.92202 -166.06470 37161 ft 491 kts 70°
2026-05-07 07:32 57.94202 -165.94190 37160 ft 490 kts 70°
2026-05-07 07:33 57.96189 -165.81909 37157 ft 491 kts 70°
2026-05-07 07:33 57.98171 -165.69571 37155 ft 493 kts 71°
2026-05-07 07:34 58.00146 -165.57190 37154 ft 493 kts 71°
2026-05-07 07:34 58.02097 -165.44870 37156 ft 494 kts 71°
2026-05-07 07:35 58.04049 -165.32451 37151 ft 494 kts 71°
2026-05-07 07:35 58.05762 -165.19897 37183 ft 496 kts 82°
2026-05-07 07:36 58.06177 -165.06848 37158 ft 499 kts 85°
2026-05-07 07:36 58.06513 -164.93830 37158 ft 500 kts 85°
2026-05-07 07:37 58.06864 -164.80740 37168 ft 498 kts 85°
2026-05-07 07:37 58.07183 -164.67676 37163 ft 497 kts 85°
2026-05-07 07:38 58.07500 -164.54635 37152 ft 497 kts 85°
2026-05-07 07:38 58.07795 -164.41682 37166 ft 498 kts 85°
2026-05-07 07:39 58.08083 -164.28578 37168 ft 500 kts 86°
2026-05-07 07:39 58.08356 -164.15460 37162 ft 500 kts 86°
2026-05-07 07:40 58.08617 -164.02334 37162 ft 500 kts 86°
2026-05-07 07:40 58.08862 -163.89295 37169 ft 500 kts 86°
2026-05-07 07:41 58.09096 -163.76164 37163 ft 500 kts 86°
2026-05-07 07:41 58.09316 -163.63013 37164 ft 501 kts 86°
2026-05-07 07:42 58.09523 -163.49859 37166 ft 501 kts 86°
2026-05-07 07:42 58.09716 -163.36761 37164 ft 502 kts 86°
2026-05-07 07:43 58.09896 -163.23573 37163 ft 502 kts 86°
2026-05-07 07:43 58.10062 -163.10394 37164 ft 501 kts 87°
2026-05-07 07:44 58.10215 -162.97216 37160 ft 501 kts 87°
2026-05-07 07:44 58.10354 -162.84058 37159 ft 500 kts 87°
2026-05-07 07:45 58.10479 -162.71001 37157 ft 500 kts 87°
2026-05-07 07:45 58.10590 -162.57869 37156 ft 499 kts 87°
2026-05-07 07:46 58.10689 -162.44734 37158 ft 499 kts 88°
2026-05-07 07:46 58.10774 -162.31600 37156 ft 500 kts 88°
2026-05-07 07:47 58.10844 -162.18550 37155 ft 500 kts 88°
2026-05-07 07:47 58.10902 -162.05414 37157 ft 500 kts 88°
2026-05-07 07:48 58.10947 -161.92269 37153 ft 500 kts 88°
2026-05-07 07:48 58.10978 -161.79120 37157 ft 500 kts 88°
2026-05-07 07:49 58.10995 -161.66051 37157 ft 500 kts 88°
2026-05-07 07:49 58.10999 -161.52896 37158 ft 501 kts 89°
2026-05-07 07:50 58.10989 -161.39728 37151 ft 501 kts 89°
2026-05-07 07:50 58.10966 -161.26556 37154 ft 501 kts 89°
2026-05-07 07:51 58.10936 -161.15605 37141 ft 501 kts 89°
2026-05-07 07:51 58.10879 -161.00280 37142 ft 501 kts 89°
2026-05-07 07:52 58.10815 -160.87096 37141 ft 501 kts 89°
2026-05-07 07:52 58.10751 -160.76141 37142 ft 501 kts 89°
2026-05-07 07:53 58.10663 -160.62963 37139 ft 501 kts 89°
2026-05-07 07:53 58.10542 -160.47648 37132 ft 502 kts 90°
2026-05-07 07:54 58.10445 -160.36679 37138 ft 502 kts 90°
2026-05-07 07:54 58.10315 -160.23464 37135 ft 503 kts 90°
2026-05-07 07:55 58.10146 -160.08087 37139 ft 503 kts 90°
2026-05-07 07:55 58.10014 -159.97042 37137 ft 501 kts 90°
2026-05-07 07:56 58.09845 -159.83986 37136 ft 500 kts 90°
2026-05-07 07:56 58.09661 -159.70849 37130 ft 500 kts 90°
2026-05-07 07:57 58.09431 -159.55555 37139 ft 501 kts 91°
2026-05-07 07:57 58.09253 -159.44511 37137 ft 502 kts 91°
2026-05-07 07:58 58.09029 -159.31408 37141 ft 502 kts 91°
2026-05-07 07:58 58.08791 -159.18231 37145 ft 501 kts 91°
2026-05-07 07:59 58.08539 -159.05088 37146 ft 500 kts 91°
2026-05-07 07:59 58.08275 -158.91962 37140 ft 499 kts 91°
2026-05-07 08:00 58.07999 -158.78952 37133 ft 499 kts 91°
2026-05-07 08:00 58.07708 -158.65840 37137 ft 500 kts 92°
2026-05-07 08:01 58.07402 -158.52669 37149 ft 503 kts 92°
2026-05-07 08:01 58.07081 -158.39461 37147 ft 503 kts 92°
2026-05-07 08:02 58.06750 -158.26359 37148 ft 502 kts 92°
2026-05-07 08:02 58.06403 -158.13199 37145 ft 501 kts 92°
2026-05-07 08:03 58.06043 -158.00053 37144 ft 501 kts 92°
2026-05-07 08:03 58.05670 -157.86928 37141 ft 500 kts 93°
2026-05-07 08:04 58.05287 -157.73914 37144 ft 500 kts 93°
2026-05-07 08:04 58.04887 -157.60800 37143 ft 501 kts 93°
2026-05-07 08:05 58.04472 -157.47636 37152 ft 503 kts 93°
2026-05-07 08:05 58.04044 -157.34469 37144 ft 502 kts 94°
2026-05-07 08:06 58.03605 -157.21431 37143 ft 500 kts 94°
2026-05-07 08:06 58.03153 -157.08351 37136 ft 499 kts 94°
2026-05-07 08:07 58.02686 -156.95270 37138 ft 500 kts 94°
2026-05-07 08:07 58.02205 -156.82160 37144 ft 502 kts 94°
2026-05-07 08:08 58.01713 -156.69111 37137 ft 502 kts 94°
2026-05-07 08:08 58.01203 -156.55971 37151 ft 503 kts 95°
2026-05-07 08:09 58.00679 -156.42805 37154 ft 504 kts 95°
2026-05-07 08:09 58.00142 -156.29649 37145 ft 503 kts 95°
2026-05-07 08:10 57.99592 -156.16525 37144 ft 502 kts 95°
2026-05-07 08:10 57.99033 -156.03508 37128 ft 501 kts 95°
2026-05-07 08:11 57.98458 -155.90428 37131 ft 500 kts 95°
2026-05-07 08:11 57.97870 -155.77365 37121 ft 501 kts 95°
2026-05-07 08:12 57.97267 -155.64268 37129 ft 502 kts 95°
2026-05-07 08:12 57.96653 -155.51237 37125 ft 503 kts 96°
2026-05-07 08:13 57.96021 -155.38100 37123 ft 503 kts 96°
2026-05-07 08:13 57.95376 -155.24993 37116 ft 503 kts 96°
2026-05-07 08:14 57.94718 -155.11889 37123 ft 503 kts 96°
2026-05-07 08:14 57.94051 -154.98876 37116 ft 503 kts 96°
2026-05-07 08:15 57.93366 -154.85792 37119 ft 502 kts 96°
2026-05-07 08:15 57.92668 -154.72717 37118 ft 502 kts 97°
2026-05-07 08:16 57.91956 -154.59631 37127 ft 504 kts 97°
2026-05-07 08:16 57.91234 -154.46615 37134 ft 503 kts 97°
2026-05-07 08:17 57.90495 -154.33533 37132 ft 502 kts 97°
2026-05-07 08:17 57.89744 -154.20487 37126 ft 501 kts 97°
2026-05-07 08:18 57.88981 -154.07468 37123 ft 501 kts 97°
2026-05-07 08:18 57.88206 -153.94477 37121 ft 500 kts 97°
2026-05-07 08:19 57.87423 -153.81572 37119 ft 501 kts 97°
2026-05-07 08:19 57.86618 -153.68548 37121 ft 503 kts 97°
2026-05-07 08:20 57.85799 -153.55496 37120 ft 503 kts 98°
2026-05-07 08:20 57.84968 -153.42473 37113 ft 502 kts 98°
2026-05-07 08:21 57.84130 -153.29579 37113 ft 500 kts 98°
2026-05-07 08:21 57.83277 -153.16636 37110 ft 500 kts 98°
2026-05-07 08:22 57.82408 -153.03671 37109 ft 501 kts 98°
2026-05-07 08:22 57.81526 -152.90711 37101 ft 501 kts 98°
2026-05-07 08:23 57.80637 -152.77848 37127 ft 501 kts 98°
2026-05-07 08:23 57.79728 -152.64890 37127 ft 502 kts 99°
2026-05-07 08:24 57.78804 -152.51911 37128 ft 503 kts 99°
2026-05-07 08:24 57.77865 -152.38913 37129 ft 503 kts 99°
2026-05-07 08:25 57.76251 -152.26237 37113 ft 501 kts 109°
2026-05-07 08:25 57.74196 -152.13889 37114 ft 500 kts 109°
2026-05-07 08:26 57.71107 -151.95230 37116 ft 500 kts 109°
2026-05-07 08:26 57.69024 -151.82818 37115 ft 500 kts 109°
2026-05-07 08:27 57.66950 -151.70506 37108 ft 500 kts 109°
2026-05-07 08:27 57.64845 -151.58127 37117 ft 500 kts 110°
2026-05-07 08:28 57.62733 -151.45773 37118 ft 500 kts 110°
2026-05-07 08:28 57.60608 -151.33437 37123 ft 499 kts 110°
2026-05-07 08:29 57.58487 -151.21202 37122 ft 499 kts 110°
2026-05-07 08:29 57.56341 -151.08909 37124 ft 499 kts 110°
2026-05-07 08:30 57.54177 -150.96599 37132 ft 501 kts 110°
2026-05-07 08:30 57.51996 -150.84272 37136 ft 502 kts 111°
2026-05-07 08:31 57.49818 -150.72041 37139 ft 502 kts 111°
2026-05-07 08:31 57.47613 -150.59747 37144 ft 501 kts 111°
2026-05-07 08:32 57.45521 -150.47406 37129 ft 502 kts 109°
2026-05-07 08:32 57.43445 -150.35015 37151 ft 503 kts 110°
2026-05-07 08:33 57.41437 -150.22682 37155 ft 503 kts 110°
2026-05-07 08:33 57.39372 -150.10298 37159 ft 503 kts 110°
2026-05-07 08:34 57.37309 -149.97928 37145 ft 502 kts 110°
2026-05-07 08:34 57.35234 -149.85599 37145 ft 500 kts 110°
2026-05-07 08:35 57.33168 -149.73407 37152 ft 499 kts 110°
2026-05-07 08:35 57.31079 -149.61159 37150 ft 500 kts 111°
2026-05-07 08:36 57.28973 -149.48898 37188 ft 501 kts 111°
2026-05-07 08:36 57.26850 -149.36614 37170 ft 502 kts 111°
2026-05-07 08:37 57.24725 -149.24417 37173 ft 502 kts 111°
2026-05-07 08:37 57.22575 -149.12145 37175 ft 502 kts 111°
2026-05-07 08:38 57.20412 -148.99888 37179 ft 503 kts 111°
2026-05-07 08:38 57.18236 -148.87634 37181 ft 503 kts 112°
2026-05-07 08:39 57.16063 -148.75485 37175 ft 503 kts 112°
2026-05-07 08:39 57.13859 -148.63242 37181 ft 504 kts 112°
2026-05-07 08:40 57.11644 -148.51011 37179 ft 503 kts 112°
2026-05-07 08:40 57.09423 -148.38835 37181 ft 501 kts 112°
2026-05-07 08:41 57.07195 -148.26700 37177 ft 500 kts 112°
2026-05-07 08:41 57.04975 -148.14688 37174 ft 499 kts 112°
2026-05-07 08:42 57.02731 -148.02622 37176 ft 500 kts 113°
2026-05-07 08:42 57.00471 -147.90547 37187 ft 501 kts 113°
2026-05-07 08:43 56.98191 -147.78439 37197 ft 502 kts 113°
2026-05-07 08:43 56.95914 -147.66426 37189 ft 503 kts 113°
2026-05-07 08:44 56.93607 -147.54329 37200 ft 504 kts 113°
2026-05-07 08:44 56.91288 -147.42242 37199 ft 502 kts 113°
2026-05-07 08:45 56.88963 -147.30209 37199 ft 501 kts 114°
2026-05-07 08:45 56.86632 -147.18215 37203 ft 499 kts 114°
2026-05-07 08:46 56.84303 -147.06310 37207 ft 502 kts 114°
2026-05-07 08:46 56.81940 -146.94293 37212 ft 503 kts 114°
2026-05-07 08:47 56.79563 -146.82284 37211 ft 503 kts 114°
2026-05-07 08:47 56.77178 -146.70307 37212 ft 502 kts 114°
2026-05-07 08:48 56.74798 -146.58428 37219 ft 503 kts 115°
2026-05-07 08:48 56.72385 -146.46463 37211 ft 503 kts 115°
2026-05-07 08:49 56.69969 -146.34548 37216 ft 501 kts 115°
2026-05-07 08:49 56.67561 -146.22746 37226 ft 502 kts 115°
2026-05-07 08:50 56.65116 -146.10832 37214 ft 504 kts 115°
2026-05-07 08:50 56.62652 -145.98896 37225 ft 506 kts 115°
2026-05-07 08:51 56.60170 -145.86943 37224 ft 506 kts 115°
2026-05-07 08:51 56.57680 -145.75021 37230 ft 505 kts 115°
2026-05-07 08:52 56.55201 -145.63224 37229 ft 504 kts 115°
2026-05-07 08:52 56.52695 -145.51368 37247 ft 505 kts 116°
2026-05-07 08:53 56.50166 -145.39475 37250 ft 506 kts 116°
2026-05-07 08:53 56.47627 -145.27597 37246 ft 506 kts 116°
2026-05-07 08:54 56.45095 -145.15828 37246 ft 505 kts 116°
2026-05-07 08:54 56.42540 -145.04007 37235 ft 504 kts 117°
2026-05-07 08:55 56.39954 -144.92136 37244 ft 510 kts 117°
2026-05-07 08:55 56.37353 -144.80230 37242 ft 509 kts 117°
2026-05-07 08:56 56.34761 -144.68460 37245 ft 508 kts 117°
2026-05-07 08:56 56.32150 -144.56658 37243 ft 506 kts 117°
2026-05-07 08:57 56.29523 -144.44864 37244 ft 511 kts 117°
2026-05-07 08:57 56.26860 -144.32959 37253 ft 513 kts 117°
2026-05-07 08:58 56.24189 -144.21091 37248 ft 511 kts 118°
2026-05-07 08:58 56.21532 -144.09358 37255 ft 510 kts 118°
2026-05-07 08:59 56.18853 -143.97583 37269 ft 510 kts 118°
2026-05-07 08:59 56.16135 -143.85726 37269 ft 515 kts 118°
2026-05-07 09:00 56.13426 -143.73942 37273 ft 514 kts 118°
2026-05-07 09:00 56.10685 -143.62114 37271 ft 514 kts 118°
2026-05-07 09:01 56.07939 -143.50313 37269 ft 513 kts 118°
2026-05-07 09:01 56.05175 -143.38513 37261 ft 516 kts 119°
2026-05-07 09:02 56.02389 -143.26666 37260 ft 517 kts 119°
2026-05-07 09:02 55.99606 -143.14914 37271 ft 517 kts 119°
2026-05-07 09:03 55.96797 -143.03104 37273 ft 516 kts 119°
2026-05-07 09:03 55.93977 -142.91322 37273 ft 516 kts 119°
2026-05-07 09:04 55.91152 -142.79580 37270 ft 515 kts 119°
2026-05-07 09:04 55.88318 -142.67862 37273 ft 515 kts 119°
2026-05-07 09:05 55.85494 -142.56250 37269 ft 514 kts 120°
2026-05-07 09:05 55.82645 -142.44595 37271 ft 513 kts 120°
2026-05-07 09:06 55.79766 -142.32892 37282 ft 519 kts 120°
2026-05-07 09:06 55.76890 -142.21239 37287 ft 518 kts 120°
2026-05-07 09:07 55.73980 -142.09533 37283 ft 518 kts 120°
2026-05-07 09:07 55.71063 -141.97848 37248 ft 518 kts 120°
2026-05-07 09:08 55.68128 -141.86163 37282 ft 521 kts 120°
2026-05-07 09:08 55.65195 -141.74532 37283 ft 520 kts 120°
2026-05-07 09:09 55.62230 -141.62853 37289 ft 520 kts 121°
2026-05-07 09:09 55.59262 -141.51212 37288 ft 519 kts 121°
2026-05-07 09:10 55.56282 -141.39593 37291 ft 521 kts 121°
2026-05-07 09:10 55.53277 -141.27932 37294 ft 522 kts 121°
2026-05-07 09:11 55.50281 -141.16367 37298 ft 521 kts 121°
2026-05-07 09:11 55.47258 -141.04757 37292 ft 521 kts 121°
2026-05-07 09:12 55.44224 -140.93165 37297 ft 522 kts 121°
2026-05-07 09:12 55.41160 -140.81525 37306 ft 525 kts 121°
2026-05-07 09:13 55.38108 -140.69975 37308 ft 523 kts 121°
2026-05-07 09:13 55.35030 -140.58401 37307 ft 522 kts 121°
2026-05-07 09:14 55.31947 -140.46856 37306 ft 521 kts 121°
2026-05-07 09:14 55.28835 -140.35279 37307 ft 526 kts 121°
2026-05-07 09:15 55.25707 -140.23675 37326 ft 526 kts 121°
2026-05-07 09:15 55.22589 -140.12188 37316 ft 525 kts 121°
2026-05-07 09:16 55.19451 -140.00677 37296 ft 523 kts 122°
2026-05-07 09:16 55.16293 -139.89160 37317 ft 527 kts 122°
2026-05-07 09:17 55.13133 -139.77673 37317 ft 528 kts 122°
2026-05-07 09:17 55.09939 -139.66138 37321 ft 527 kts 122°
2026-05-07 09:18 55.06740 -139.54636 37319 ft 526 kts 122°
2026-05-07 09:18 55.03528 -139.43150 37320 ft 529 kts 122°
2026-05-07 09:19 55.00313 -139.31701 37322 ft 529 kts 122°
2026-05-07 09:19 54.97069 -139.20214 37322 ft 528 kts 122°
2026-05-07 09:20 54.93821 -139.08763 37324 ft 528 kts 122°
2026-05-07 09:20 54.90563 -138.97339 37331 ft 528 kts 122°
2026-05-07 09:21 54.87304 -138.85966 37332 ft 530 kts 122°
2026-05-07 09:21 54.84013 -138.74534 37338 ft 530 kts 122°
2026-05-07 09:22 54.80708 -138.63111 37341 ft 529 kts 123°
2026-05-07 09:22 54.77399 -138.51729 37334 ft 528 kts 123°
2026-05-07 09:23 54.74100 -138.40441 37335 ft 529 kts 123°
2026-05-07 09:23 54.70765 -138.29078 37338 ft 530 kts 123°
2026-05-07 09:24 54.67416 -138.17727 37340 ft 531 kts 123°
2026-05-07 09:24 54.64057 -138.06391 37339 ft 529 kts 123°
2026-05-07 09:25 54.60722 -137.95195 37335 ft 527 kts 123°
2026-05-07 09:25 54.57367 -137.83983 37338 ft 526 kts 123°
2026-05-07 09:26 54.54002 -137.72794 37339 ft 527 kts 123°
2026-05-07 09:26 54.50622 -137.61600 37341 ft 526 kts 123°
2026-05-07 09:27 54.47232 -137.50435 37344 ft 527 kts 124°
2026-05-07 09:28 54.42143 -137.33763 37347 ft 528 kts 124°
2026-05-07 09:28 54.38716 -137.22606 37355 ft 528 kts 124°
2026-05-07 09:29 54.35284 -137.11476 37343 ft 527 kts 124°
2026-05-07 09:29 54.31876 -137.00482 37341 ft 525 kts 124°
2026-05-07 09:30 54.28443 -136.89455 37345 ft 524 kts 124°
2026-05-07 09:30 54.25002 -136.78459 37346 ft 525 kts 124°
2026-05-07 09:31 54.21550 -136.67470 37357 ft 525 kts 125°
2026-05-07 09:31 54.18082 -136.56487 37362 ft 526 kts 125°
2026-05-07 09:32 54.14622 -136.45574 37363 ft 526 kts 125°
2026-05-07 09:32 54.11131 -136.34614 37362 ft 525 kts 125°
2026-05-07 09:33 54.07636 -136.23693 37348 ft 525 kts 125°
2026-05-07 09:33 54.04130 -136.12785 37351 ft 526 kts 125°
2026-05-07 09:34 54.00659 -136.01935 37359 ft 528 kts 121°
2026-05-07 09:34 53.99358 -135.96045 37372 ft 537 kts 110°
2026-05-07 09:34 53.98356 -135.89910 37366 ft 539 kts 110°
2026-05-07 09:35 53.96370 -135.77666 37355 ft 536 kts 110°
2026-05-07 09:35 53.94358 -135.65480 37358 ft 536 kts 110°
2026-05-07 09:36 53.92345 -135.53301 37381 ft 536 kts 110°
2026-05-07 09:36 53.90319 -135.41175 37361 ft 539 kts 110°
2026-05-07 09:37 53.88267 -135.28945 37325 ft 539 kts 110°
2026-05-07 09:37 53.86201 -135.16739 37353 ft 539 kts 110°
2026-05-07 09:38 53.84122 -135.04532 37353 ft 540 kts 110°
2026-05-07 09:38 53.82042 -134.92407 37355 ft 540 kts 110°
2026-05-07 09:39 53.79937 -134.80216 37357 ft 539 kts 111°
2026-05-07 09:39 53.77826 -134.68079 37349 ft 537 kts 111°
2026-05-07 09:40 53.75708 -134.55984 37345 ft 537 kts 111°
2026-05-07 09:40 53.73593 -134.43984 37344 ft 536 kts 111°
2026-05-07 09:41 53.71450 -134.31915 37355 ft 539 kts 110°
2026-05-07 09:41 53.69284 -134.19778 37330 ft 540 kts 110°
2026-05-07 09:42 53.67102 -134.07649 37346 ft 541 kts 111°
2026-05-07 09:42 53.64905 -133.95512 37345 ft 542 kts 111°
2026-05-07 09:43 53.62713 -133.83476 37346 ft 540 kts 111°
2026-05-07 09:43 53.60548 -133.71389 37342 ft 539 kts 110°
2026-05-07 09:44 53.58448 -133.59296 37338 ft 538 kts 110°
2026-05-07 09:44 53.56277 -133.47217 37346 ft 540 kts 110°
2026-05-07 09:45 53.54127 -133.35110 37348 ft 540 kts 110°
2026-05-07 09:45 53.51954 -133.23102 37336 ft 541 kts 110°
2026-05-07 09:46 53.49764 -133.10982 37349 ft 542 kts 110°
2026-05-07 09:46 53.47552 -132.98884 37346 ft 542 kts 110°
2026-05-07 09:47 53.45333 -132.86792 37357 ft 542 kts 110°
2026-05-07 09:47 53.43116 -132.74808 37348 ft 541 kts 110°
2026-05-07 09:48 53.40876 -132.62767 37350 ft 540 kts 110°
2026-05-07 09:48 53.38629 -132.50772 37331 ft 540 kts 110°
2026-05-07 09:49 53.36381 -132.38847 37327 ft 541 kts 110°
2026-05-07 09:49 53.34102 -132.26828 37328 ft 541 kts 111°
2026-05-07 09:50 53.31813 -132.14844 37337 ft 541 kts 110°
2026-05-07 09:50 53.29516 -132.02881 37315 ft 538 kts 110°
2026-05-07 09:51 53.27214 -131.90976 37317 ft 539 kts 110°
2026-05-07 09:51 53.24319 -131.79628 37341 ft 531 kts 129°
2026-05-07 09:52 53.19674 -131.70212 37332 ft 524 kts 137°
2026-05-07 09:52 53.14838 -131.61129 37318 ft 523 kts 137°
2026-05-07 09:53 53.10012 -131.52061 37327 ft 523 kts 137°
2026-05-07 09:53 53.05208 -131.43085 37327 ft 523 kts 138°
2026-05-07 09:54 53.00370 -131.34069 37327 ft 523 kts 138°
2026-05-07 09:54 52.95520 -131.25068 37314 ft 523 kts 138°
2026-05-07 09:55 52.90669 -131.16098 37310 ft 522 kts 138°
2026-05-07 09:55 52.85851 -131.07219 37302 ft 522 kts 138°
2026-05-07 09:56 52.80993 -130.98300 37304 ft 522 kts 138°
2026-05-07 09:56 52.76139 -130.89418 37303 ft 520 kts 138°
2026-05-07 09:57 52.71289 -130.80581 37298 ft 519 kts 139°
2026-05-07 09:57 52.66435 -130.71762 37295 ft 519 kts 139°
2026-05-07 09:58 52.61611 -130.63032 37295 ft 519 kts 139°
2026-05-07 09:58 52.56742 -130.54251 37293 ft 521 kts 139°
2026-05-07 09:59 52.51849 -130.45457 37298 ft 522 kts 139°
2026-05-07 09:59 52.46946 -130.36678 37291 ft 522 kts 139°
2026-05-07 10:00 52.42072 -130.27980 37296 ft 521 kts 139°
2026-05-07 10:00 52.37139 -130.19212 37295 ft 525 kts 139°
2026-05-07 10:01 52.32195 -130.10446 37300 ft 524 kts 139°
2026-05-07 10:01 52.27249 -130.01717 37295 ft 523 kts 139°
2026-05-07 10:02 52.22338 -129.93076 37285 ft 523 kts 139°
2026-05-07 10:02 52.17371 -129.84368 37287 ft 525 kts 139°
2026-05-07 10:03 52.12394 -129.75674 37286 ft 525 kts 139°
2026-05-07 10:03 52.07409 -129.66996 37287 ft 525 kts 139°
2026-05-07 10:04 52.02452 -129.58398 37282 ft 526 kts 139°
2026-05-07 10:04 51.97436 -129.49724 37283 ft 527 kts 139°
2026-05-07 10:05 51.92421 -129.41084 37280 ft 526 kts 139°
2026-05-07 10:05 51.87396 -129.32458 37276 ft 526 kts 139°
2026-05-07 10:06 51.82402 -129.23914 37276 ft 526 kts 139°
2026-05-07 10:06 51.77371 -129.15339 37276 ft 526 kts 139°
2026-05-07 10:07 51.72334 -129.06780 37273 ft 526 kts 139°
2026-05-07 10:07 51.67288 -128.98240 37270 ft 528 kts 139°
2026-05-07 10:08 51.62241 -128.89721 37277 ft 529 kts 139°
2026-05-07 10:08 51.57159 -128.81176 37277 ft 528 kts 139°
2026-05-07 10:09 51.52075 -128.72658 37247 ft 527 kts 139°
2026-05-07 10:09 51.47001 -128.64185 37264 ft 527 kts 139°
2026-05-07 10:10 51.41946 -128.55775 37269 ft 527 kts 139°
2026-05-07 10:10 51.36848 -128.47319 37272 ft 528 kts 139°
2026-05-07 10:11 51.31744 -128.38882 37271 ft 526 kts 139°
2026-05-07 10:11 51.26660 -128.30508 37267 ft 524 kts 139°
2026-05-07 10:12 51.21587 -128.22181 37263 ft 522 kts 139°
2026-05-07 10:12 51.16546 -128.13933 37257 ft 524 kts 139°
2026-05-07 10:13 51.11458 -128.05635 37263 ft 524 kts 139°
2026-05-07 10:13 51.06360 -127.97351 37263 ft 524 kts 139°
2026-05-07 10:14 51.01259 -127.89088 37262 ft 524 kts 139°
2026-05-07 10:14 50.96186 -127.80898 37258 ft 524 kts 140°
2026-05-07 10:15 50.91080 -127.72682 37254 ft 523 kts 140°
2026-05-07 10:15 50.85973 -127.64492 37251 ft 522 kts 140°
2026-05-07 10:16 50.80874 -127.56341 37253 ft 521 kts 140°
2026-05-07 10:16 50.75806 -127.48268 37254 ft 521 kts 140°
2026-05-07 10:17 50.70687 -127.40140 37258 ft 523 kts 140°
2026-05-07 10:17 50.65983 -127.31337 37264 ft 529 kts 130°
2026-05-07 10:18 50.61617 -127.22011 37264 ft 529 kts 130°
2026-05-07 10:18 50.57233 -127.12718 37266 ft 529 kts 130°
2026-05-07 10:19 50.52874 -127.03488 37269 ft 529 kts 130°
2026-05-07 10:19 50.48475 -126.94219 37270 ft 529 kts 130°
2026-05-07 10:20 50.44066 -126.84956 37266 ft 531 kts 130°
2026-05-07 10:20 50.39633 -126.75677 37266 ft 532 kts 131°
2026-05-07 10:21 50.35191 -126.66411 37274 ft 532 kts 131°
2026-05-07 10:21 50.30776 -126.57235 37269 ft 531 kts 131°
2026-05-07 10:22 50.26325 -126.48017 37270 ft 533 kts 131°
2026-05-07 10:22 50.21844 -126.38767 37267 ft 534 kts 131°
2026-05-07 10:23 50.17361 -126.29545 37263 ft 533 kts 131°
2026-05-07 10:23 50.12902 -126.20409 37258 ft 533 kts 131°
2026-05-07 10:24 50.08403 -126.11218 37248 ft 534 kts 131°
2026-05-07 10:24 50.03894 -126.02042 37250 ft 534 kts 131°
2026-05-07 10:25 49.99376 -125.92877 37244 ft 534 kts 132°
2026-05-07 10:25 49.94878 -125.83786 37224 ft 534 kts 131°
2026-05-07 10:26 49.90342 -125.74651 37225 ft 535 kts 132°
2026-05-07 10:26 49.85804 -125.65538 37226 ft 534 kts 132°
2026-05-07 10:27 49.81279 -125.56490 37199 ft 535 kts 131°
2026-05-07 10:27 49.76718 -125.47392 37198 ft 536 kts 132°
2026-05-07 10:28 49.72143 -125.38305 37204 ft 535 kts 132°
2026-05-07 10:28 49.67569 -125.29249 37210 ft 534 kts 132°
2026-05-07 10:29 49.63009 -125.20253 37220 ft 532 kts 131°
2026-05-07 10:29 49.58473 -125.11331 37223 ft 533 kts 132°
2026-05-07 10:30 49.51586 -124.97885 37227 ft 533 kts 132°
2026-05-07 10:30 49.46997 -124.88954 37211 ft 532 kts 131°
2026-05-07 10:31 49.42399 -124.80039 37213 ft 531 kts 132°
2026-05-07 10:31 49.37837 -124.71225 37206 ft 531 kts 132°
2026-05-07 10:32 49.33226 -124.62345 37183 ft 532 kts 131°
2026-05-07 10:32 49.28619 -124.53501 37198 ft 530 kts 131°
2026-05-07 10:33 49.24016 -124.44696 37190 ft 529 kts 131°
2026-05-07 10:33 49.19449 -124.35989 37188 ft 529 kts 132°
2026-05-07 10:34 49.14839 -124.27228 37190 ft 528 kts 131°
2026-05-07 10:34 49.10234 -124.18504 37201 ft 527 kts 132°
2026-05-07 10:35 49.05609 -124.09774 37199 ft 532 kts 131°
2026-05-07 10:35 49.00981 -124.01057 37196 ft 532 kts 131°
2026-05-07 10:36 48.96336 -123.92347 36771 ft 527 kts 131°
2026-05-07 10:36 48.94012 -123.87998 36049 ft 528 kts 131°
2026-05-07 10:36 48.91696 -123.83670 35413 ft 527 kts 131°
2026-05-07 10:37 48.89385 -123.79358 34753 ft 526 kts 131°
2026-05-07 10:37 48.87074 -123.75056 34064 ft 526 kts 131°
2026-05-07 10:37 48.84759 -123.70753 33336 ft 524 kts 131°
2026-05-07 10:37 48.82494 -123.66544 32672 ft 521 kts 131°
2026-05-07 10:38 48.80209 -123.62308 31996 ft 518 kts 131°
2026-05-07 10:38 48.77928 -123.58089 31323 ft 515 kts 131°
2026-05-07 10:38 48.75658 -123.53896 30653 ft 513 kts 131°
2026-05-07 10:38 48.73330 -123.49842 29960 ft 507 kts 140°
2026-05-07 10:39 48.70628 -123.46528 29316 ft 495 kts 151°
2026-05-07 10:39 48.67739 -123.43784 28668 ft 487 kts 152°
2026-05-07 10:39 48.64870 -123.41106 28027 ft 482 kts 152°
2026-05-07 10:39 48.62027 -123.38469 27409 ft 477 kts 151°
2026-05-07 10:40 48.59257 -123.35888 26796 ft 472 kts 151°
2026-05-07 10:40 48.56479 -123.33294 26180 ft 467 kts 151°
2026-05-07 10:40 48.53726 -123.30732 25572 ft 462 kts 151°
2026-05-07 10:40 48.51002 -123.28207 24974 ft 458 kts 151°
2026-05-07 10:41 48.48304 -123.25707 24373 ft 453 kts 150°
2026-05-07 10:41 48.45627 -123.23225 23789 ft 449 kts 150°
2026-05-07 10:41 48.42982 -123.20777 23148 ft 443 kts 150°
2026-05-07 10:41 48.40374 -123.18367 22577 ft 436 kts 150°
2026-05-07 10:42 48.37806 -123.15998 22018 ft 429 kts 150°
2026-05-07 10:42 48.35316 -123.13704 21477 ft 423 kts 150°
2026-05-07 10:42 48.32824 -123.11410 20939 ft 417 kts 150°
2026-05-07 10:42 48.30368 -123.09154 20400 ft 411 kts 150°
2026-05-07 10:43 48.27945 -123.06931 19888 ft 406 kts 150°
2026-05-07 10:43 48.25544 -123.04732 19365 ft 402 kts 150°
2026-05-07 10:43 48.23170 -123.02558 18840 ft 398 kts 150°
2026-05-07 10:43 48.20817 -123.00406 18305 ft 395 kts 150°
2026-05-07 10:44 48.18486 -122.98277 17768 ft 390 kts 150°
2026-05-07 10:44 48.16170 -122.96165 17056 ft 389 kts 150°
2026-05-07 10:44 48.13910 -122.94104 16555 ft 382 kts 150°
2026-05-07 10:44 48.11660 -122.92054 16058 ft 376 kts 149°
2026-05-07 10:45 48.09435 -122.90030 15567 ft 372 kts 149°
2026-05-07 10:45 48.07234 -122.88030 15085 ft 369 kts 149°
2026-05-07 10:45 48.05065 -122.86040 14603 ft 362 kts 146°
2026-05-07 10:45 48.03269 -122.83498 14147 ft 353 kts 125°
2026-05-07 10:46 48.02351 -122.81512 13817 ft 349 kts 123°
2026-05-07 10:46 48.00625 -122.77488 13185 ft 339 kts 121°
2026-05-07 10:46 47.99387 -122.74545 12754 ft 331 kts 122°
2026-05-07 10:46 47.98292 -122.71642 12337 ft 321 kts 109°
2026-05-07 10:47 47.97571 -122.68542 11925 ft 313 kts 109°
2026-05-07 10:47 47.96827 -122.65528 11505 ft 307 kts 109°
2026-05-07 10:47 47.96347 -122.63562 11248 ft 303 kts 108°
2026-05-07 10:47 47.95411 -122.59637 10716 ft 298 kts 108°
2026-05-07 10:48 47.94718 -122.56739 10325 ft 295 kts 108°
2026-05-07 10:48 47.94261 -122.54840 10064 ft 292 kts 108°
2026-05-07 10:48 47.93356 -122.51095 9532 ft 282 kts 108°
2026-05-07 10:48 47.92886 -122.49308 9281 ft 277 kts 115°
2026-05-07 10:49 47.91151 -122.46650 8810 ft 272 kts 152°
2026-05-07 10:49 47.89377 -122.45737 8462 ft 270 kts 163°
2026-05-07 10:49 47.88166 -122.45185 8224 ft 269 kts 163°
2026-05-07 10:49 47.85801 -122.44135 7754 ft 267 kts 163°
2026-05-07 10:50 47.84024 -122.43352 7405 ft 266 kts 163°
2026-05-07 10:50 47.82851 -122.42833 7170 ft 265 kts 163°
2026-05-07 10:50 47.81097 -122.42055 6825 ft 261 kts 163°
2026-05-07 10:50 47.79373 -122.41291 6474 ft 256 kts 164°
2026-05-07 10:51 47.77679 -122.40544 6123 ft 252 kts 163°
2026-05-07 10:51 47.76095 -122.39588 5941 ft 239 kts 149°
2026-05-07 10:51 47.74130 -122.38167 5893 ft 239 kts 156°
2026-05-07 10:51 47.73100 -122.37489 5718 ft 239 kts 155°
2026-05-07 10:52 47.71602 -122.36443 5414 ft 236 kts 154°
2026-05-07 10:52 47.70156 -122.35401 5107 ft 234 kts 153°
2026-05-07 10:52 47.68672 -122.34340 4784 ft 235 kts 154°
2026-05-07 10:52 47.67197 -122.33294 4475 ft 233 kts 154°
2026-05-07 10:53 47.65735 -122.32261 4171 ft 233 kts 154°
2026-05-07 10:53 47.64200 -122.31609 3835 ft 233 kts 181°
2026-05-07 10:53 47.62589 -122.31737 3542 ft 232 kts 177°
2026-05-07 10:53 47.60999 -122.31671 3278 ft 224 kts 180°
2026-05-07 10:54 47.59473 -122.31687 2992 ft 214 kts 179°
2026-05-07 10:54 47.58030 -122.31699 2701 ft 206 kts 180°
2026-05-07 10:54 47.56616 -122.31710 2417 ft 200 kts 180°
2026-05-07 10:54 47.55282 -122.31719 2160 ft 180 kts 180°
2026-05-07 10:55 47.54123 -122.31727 1922 ft 155 kts 180°
2026-05-07 10:55 47.53087 -122.31732 1806 ft 151 kts 181°
2026-05-07 10:55 47.52049 -122.31743 1612 ft 142 kts 181°
2026-05-07 10:55 47.51098 -122.31750 1421 ft 137 kts 181°
2026-05-07 10:56 47.50147 -122.31759 1224 ft 136 kts 181°
2026-05-07 10:56 47.49210 -122.31767 1036 ft 136 kts 180°
2026-05-07 10:56 47.48261 -122.31778 830 ft 136 kts 180°
2026-05-07 10:56 47.47303 -122.31785 657 ft 140 kts 180°
2026-05-07 10:57 47.46321 -122.31790 451 ft 139 kts 179°
2026-05-07 10:57 47.45508 -122.31794 407 ft 75 kts 180°
2026-05-07 10:57 47.45103 -122.31797 395 ft 54 kts 180°
2026-05-07 10:57 47.44753 -122.31799 392 ft 48 kts 181°
2026-05-07 10:58 47.44435 -122.31791 381 ft 44 kts 173°
2026-05-07 10:58 47.44158 -122.31625 373 ft 42 kts 149°
2026-05-07 10:58 47.43924 -122.31430 376 ft 35 kts 151°
2026-05-07 10:58 47.43804 -122.31219 376 ft 24 kts 88°
2026-05-07 10:59 47.43809 -122.30954 379 ft 26 kts 91°
2026-05-07 10:59 47.43808 -122.30687 382 ft 22 kts 83°
2026-05-07 10:59 47.43877 -122.30585 387 ft 12 kts 24°
2026-05-07 10:59 47.43957 -122.30543 389 ft 13 kts 26°
2026-05-07 11:00 47.43988 -122.30454 391 ft 9 kts 84°
2026-05-07 11:00 47.43998 -122.30354 392 ft 13 kts 72°
2026-05-07 11:00 47.44044 -122.30204 395 ft 17 kts 72°
2026-05-07 11:00 47.44019 -122.30065 395 ft 11 kts 146°
2026-05-07 11:01 47.43987 -122.30071 391 ft 5 kts 219°
2026-05-07 11:01 47.43962 -122.30120 389 ft 2 kts 237°
2026-05-07 11:01 47.43960 -122.30124 391 ft 0 kts 238°
2026-05-07 11:04 47.43960 -122.30123 391 ft 0 kts 238°